Temp
-15 -15 -14 -15 -15 -15 -14 -13 -13 -13 -13 -12 -11 -11 -10 -11 -10 -10 -10 -10 -10 -10 -11 -10 -10 -11 -11 -11 -11 -11 -11 -11 -10 -12 -12 -12 -12 -11 -11 -11 -11 -13 -14 -14
-15 -15 -16 -16 -15 -14 -13 -13 -14 -14 -13 -11 -12 -11 -11 -11 -11 -10 -11 -11 -11 -11 -11 -11 -11 -11 -11 -11 -11 -11 -11 -11 -11 -11 -12 -12 -12 -12 -12 -12 -12 -12 -14 -14
-16 -16 -16 -15 -15 -15 -15 -14 -14 -14 -13 -13 -12 -11 -12 -12 -12 -11 -12 -12 -11 -11 -11 -11 -11 -11 -12 -11 -11 -12 -11 -11 -11 -11 -11 -11 -11 -12 -12 -12 -12 -13 -13 -13
-16 -16 -16 -16 -16 -15 -15 -14 -14 -14 -14 -13 -13 -11 -12 -12 -12 -12 -12 -12 -12 -12 -12 -12 -12 -12 -12 -12 -12 -12 -12 -12 -12 -12 -11 -11 -11 -12 -12 -12 -13 -13 -13 -13
-17 -16 -16 -16 -16 -15 -15 -15 -15 -15 -14 -14 -14 -12 -11 -13 -13 -13 -12 -12 -12 -12 -12 -12 -12 -12 -12 -12 -12 -12 -13 -13 -12 -12 -12 -12 -12 -12 -12 -13 -13 -13 -13 -13
-16 -17 -17 -16 -16 -16 -15 -15 -15 -15 -14 -14 -14 -13 -12 -12 -12 -12 -12 -12 -12 -12 -12 -12 -12 -12 -12 -12 -12 -12 -12 -13 -13 -13 -12 -12 -12 -12 -13 -13 -13 -13 -13 -14
-17 -17 -17 -16 -16 -15 -15 -15 -15 -14 -14 -14 -13 -13 -12 -13 -13 -12 -12 -13 -13 -13 -13 -12 -12 -12 -13 -12 -13 -12 -12 -13 -13 -13 -12 -12 -12 -13 -13 -14 -14 -14 -13 -14
-17 -17 -16 -16 -16 -15 -15 -15 -15 -14 -14 -13 -13 -13 -12 -13 -13 -13 -14 -14 -13 -13 -13 -14 -14 -14 -14 -14 -15 -15 -14 -13 -13 -14 -13 -13 -13 -13 -14 -14 -14 -14 -14 -14
-16 -16 -16 -16 -16 -15 -16 -15 -15 -14 -14 -13 -14 -13 -13 -14 -14 -14 -13 -13 -13 -13 -14 -14 -14 -14 -14 -14 -15 -15 -15 -14 -14 -14 -14 -13 -14 -14 -14 -14 -14 -14 -14 -14
-17 -16 -16 -16 -16 -15 -15 -15 -15 -15 -15 -14 -13 -13 -13 -15 -14 -13 -13 -14 -15 -15 -15 -15 -15 -15 -15 -16 -16 -16 -15 -15 -14 -14 -14 -14 -14 -14 -14 -15 -15 -14 -14 -14
-16 -16 -16 -16 -16 -16 -16 -16 -15 -15 -15 -14 -14 -13 -15 -15 -15 -14 -14 -15 -16 -17 -16 -16 -16 -16 -17 -17 -16 -16 -16 -16 -14 -14 -14 -15 -15 -15 -15 -15 -15 -14 -14 -14
-16 -16 -16 -16 -16 -16 -16 -15 -15 -15 -15 -15 -14 -13 -15 -15 -15 -15 -15 -16 -17 -18 -18 -18 -17 -18 -18 -18 -17 -17 -17 -16 -15 -14 -15 -15 -15 -16 -16 -15 -15 -15 -14 -15
-17 -17 -17 -16 -16 -16 -15 -15 -16 -16 -15 -15 -14 -15 -15 -15 -14 -15 -15 -17 -17 -18 -18 -18 -19 -20 -20 -20 -18 -18 -17 -17 -17 -16 -16 -16 -16 -16 -16 -15 -15 -15 -15 -15
-17 -17 -17 -16 -16 -15 -16 -16 -16 -15 -15 -15 -15 -14 -15 -14 -14 -15 -16 -17 -18 -18 -20 -20 -20 -20 -21 -21 -20 -19 -19 -18 -17 -18 -17 -17 -17 -16 -15 -15 -15 -15 -15 -15
-17 -17 -17 -16 -15 -16 -16 -16 -16 -16 -16 -14 -15 -15 -14 -15 -15 -15 -16 -18 -19 -20 -20 -20 -21 -21 -20 -20 -20 -20 -20 -19 -18 -18 -17 -17 -16 -16 -15 -15 -15 -15 -16 -16
-17 -16 -16 -16 -16 -16 -16 -16 -16 -16 -15 -15 -15 -14 -14 -15 -15 -16 -16 -18 -19 -20 -20 -20 -20 -21 -21 -20 -20 -20 -19 -18 -18 -17 -17 -17 -16 -15 -15 -15 -16 -17 -16 -16
-17 -16 -17 -17 -16 -17 -17 -16 -16 -16 -16 -16 -15 -15 -15 -15 -15 -16 -16 -18 -19 -20 -20 -20 -20 -20 -20 -20 -20 -19 -19 -18 -17 -17 -17 -16 -15 -15 -15 -15 -15 -16 -15 -16
-17 -17 -17 -17 -17 -17 -17 -16 -16 -16 -16 -15 -15 -15 -14 -14 -15 -15 -16 -17 -17 -18 -19 -19 -19 -20 -20 -19 -19 -19 -18 -18 -17 -17 -16 -16 -15 -16 -16 -16 -16 -15 -16 -17
-17 -17 -17 -17 -17 -17 -16 -16 -16 -16 -16 -15 -15 -15 -15 -14 -15 -16 -16 -16 -17 -17 -17 -18 -18 -19 -19 -19 -19 -19 -18 -17 -17 -16 -16 -16 -16 -16 -15 -15 -15 -16 -17 -16
-17 -17 -17 -17 -17 -16 -16 -16 -16 -16 -16 -15 -15 -15 -15 -15 -15 -15 -16 -16 -16 -17 -17 -17 -17 -18 -18 -18 -18 -18 -17 -17 -16 -16 -15 -16 -16 -16 -15 -16 -16 -17 -16 -17
-17 -17 -17 -17 -17 -16 -16 -16 -16 -16 -16 -15 -16 -16 -15 -15 -16 -15 -15 -16 -16 -16 -16 -16 -16 -16 -16 -16 -16 -16 -16 -16 -16 -15 -16 -17 -16 -17 -16 -16 -17 -16 -16 -17
-17 -17 -17 -17 -16 -16 -16 -16 -16 -17 -16 -16 -16 -16 -16 -16 -16 -16 -15 -15 -16 -16 -16 -17 -17 -16 -16 -16 -16 -17 -16 -16 -16 -16 -16 -16 -16 -17 -17 -17 -17 -17 -17 -17
-17 -17 -17 -17 -16 -16 -16 -16 -16 -17 -16 -16 -16 -16 -16 -17 -16 -16 -16 -15 -15 -16 -16 -16 -16 -16 -16 -16 -16 -16 -16 -17 -16 -17 -17 -17 -17 -17 -17 -16 -16 -17 -17 -17
-17 -17 -17 -17 -17 -16 -16 -16 -17 -17 -17 -17 -17 -17 -16 -17 -17 -17 -17 -16 -16 -16 -16 -16 -16 -16 -16 -16 -16 -16 -16 -17 -17 -16 -16 -16 -16 -16 -16 -16 -16 -17 -17 -18
-17 -17 -17 -16 -17 -17 -16 -16 -17 -17 -17 -17 -17 -17 -17 -16 -17 -17 -17 -17 -17 -17 -16 -16 -17 -16 -16 -16 -16 -16 -16 -16 -16 -16 -16 -16 -16 -16 -17 -17 -18 -18 -18 -19
-17 -17 -16 -16 -16 -16 -16 -17 -17 -17 -17 -17 -17 -17 -17 -17 -17 -17 -17 -17 -17 -17 -17 -17 -17 -17 -16 -16 -16 -16 -16 -16 -16 -16 -17 -17 -17 -18 -18 -19 -19 -19 -19 -20
Height
5668 5674 5679 5685 5688 5692 5698 5703 5708 5711 5714 5718 5724 5728 5733 5735 5738 5740 5742 5745 5747 5750 5751 5754 5756 5757 5759 5760 5761 5763 5764 5764 5767 5771 5772 5771 5771 5771 5773 5776 5777 5779 5780 5775
5664 5669 5673 5677 5682 5687 5692 5697 5703 5705 5706 5711 5716 5722 5724 5727 5731 5732 5734 5737 5740 5741 5742 5744 5745 5747 5749 5751 5752 5752 5754 5756 5757 5760 5763 5763 5763 5763 5764 5767 5769 5771 5772 5768
5658 5664 5668 5673 5677 5683 5687 5692 5695 5699 5701 5704 5708 5714 5716 5720 5722 5724 5726 5727 5730 5732 5733 5734 5735 5737 5739 5741 5742 5743 5744 5745 5747 5748 5751 5753 5754 5755 5756 5758 5760 5761 5760 5760
5653 5658 5664 5669 5674 5678 5683 5687 5691 5693 5697 5699 5701 5705 5711 5712 5714 5715 5717 5719 5720 5722 5723 5724 5725 5726 5727 5729 5730 5731 5733 5735 5737 5739 5741 5743 5744 5744 5747 5749 5750 5751 5752 5751
5651 5656 5661 5665 5670 5674 5679 5683 5686 5688 5691 5695 5698 5698 5707 5707 5707 5707 5708 5710 5709 5709 5710 5711 5712 5713 5715 5715 5717 5718 5718 5720 5722 5725 5730 5732 5734 5736 5737 5739 5741 5743 5743 5742
5648 5654 5659 5663 5667 5671 5676 5680 5682 5685 5688 5691 5693 5694 5696 5699 5699 5698 5697 5696 5696 5694 5696 5697 5698 5699 5700 5701 5703 5703 5704 5705 5706 5708 5715 5718 5723 5727 5727 5728 5730 5733 5733 5734
5648 5652 5656 5661 5665 5670 5673 5676 5679 5681 5683 5685 5686 5689 5693 5687 5686 5685 5684 5681 5680 5678 5679 5680 5680 5681 5682 5683 5683 5683 5685 5688 5689 5691 5700 5704 5708 5715 5717 5715 5719 5722 5724 5725
5646 5651 5655 5659 5663 5667 5670 5673 5674 5675 5677 5678 5678 5680 5683 5679 5675 5672 5671 5669 5667 5664 5662 5662 5662 5663 5664 5665 5666 5667 5668 5672 5674 5678 5684 5690 5697 5701 5702 5703 5708 5712 5713 5715
5644 5650 5653 5657 5661 5664 5666 5668 5670 5670 5671 5670 5672 5672 5671 5669 5666 5661 5658 5653 5651 5648 5645 5644 5646 5647 5646 5646 5647 5651 5654 5657 5661 5664 5669 5677 5684 5686 5688 5692 5697 5700 5704 5706
5643 5648 5651 5654 5657 5660 5661 5664 5666 5665 5664 5663 5662 5662 5661 5660 5655 5650 5645 5642 5637 5631 5626 5626 5630 5629 5628 5627 5627 5631 5636 5642 5647 5651 5657 5664 5669 5672 5676 5681 5686 5690 5693 5695
5641 5645 5650 5652 5653 5655 5658 5659 5659 5659 5658 5654 5653 5652 5650 5646 5642 5638 5635 5628 5621 5614 5606 5604 5607 5608 5609 5609 5610 5613 5618 5624 5633 5639 5645 5649 5655 5661 5667 5671 5676 5679 5683 5686
5639 5642 5645 5647 5649 5651 5653 5653 5653 5651 5651 5652 5646 5645 5645 5641 5635 5629 5624 5619 5613 5603 5592 5587 5587 5588 5591 5590 5593 5598 5602 5610 5620 5627 5632 5640 5647 5652 5658 5662 5666 5671 5675 5678
5636 5638 5641 5643 5647 5648 5648 5648 5647 5645 5645 5647 5639 5640 5636 5627 5623 5618 5610 5601 5591 5583 5575 5571 5570 5571 5574 5573 5580 5584 5589 5597 5606 5614 5619 5627 5634 5640 5647 5653 5658 5664 5668 5670
5632 5635 5638 5641 5643 5644 5644 5642 5641 5641 5641 5640 5638 5633 5629 5623 5616 5610 5600 5588 5576 5568 5561 5556 5557 5558 5559 5563 5567 5575 5577 5587 5594 5601 5609 5617 5625 5633 5640 5647 5653 5656 5660 5662
5631 5634 5636 5637 5637 5639 5640 5639 5638 5636 5635 5632 5632 5625 5620 5615 5609 5600 5590 5577 5565 5558 5554 5550 5547 5548 5551 5555 5560 5567 5573 5581 5587 5593 5603 5612 5621 5628 5635 5642 5646 5649 5652 5655
5628 5631 5632 5632 5633 5635 5635 5634 5634 5633 5632 5629 5625 5622 5616 5610 5603 5593 5583 5571 5561 5553 5550 5546 5544 5545 5548 5552 5558 5564 5570 5576 5584 5592 5600 5608 5617 5624 5631 5635 5639 5644 5645 5647
5626 5627 5628 5629 5630 5631 5632 5632 5631 5631 5628 5625 5623 5618 5614 5607 5598 5590 5582 5571 5560 5553 5549 5546 5545 5545 5548 5551 5556 5562 5570 5577 5583 5590 5599 5607 5614 5620 5626 5631 5636 5637 5638 5639
5622 5623 5625 5626 5627 5629 5630 5630 5630 5628 5627 5624 5619 5615 5610 5603 5594 5588 5582 5573 5564 5557 5552 5549 5548 5547 5549 5553 5559 5564 5570 5576 5583 5591 5599 5606 5612 5618 5624 5628 5630 5631 5634 5632
5618 5620 5623 5624 5625 5627 5627 5628 5628 5626 5624 5621 5617 5613 5608 5602 5596 5590 5585 5579 5573 5566 5561 5558 5555 5554 5555 5558 5563 5568 5575 5580 5586 5592 5599 5609 5612 5615 5618 5618 5622 5627 5624 5623
5616 5618 5621 5622 5623 5624 5625 5625 5625 5624 5621 5618 5614 5611 5607 5603 5597 5593 5588 5583 5579 5575 5571 5568 5565 5565 5566 5569 5572 5576 5580 5585 5590 5595 5595 5607 5610 5612 5613 5618 5620 5619 5618 5617
5613 5615 5618 5620 5620 5622 5622 5622 5622 5622 5622 5616 5613 5609 5605 5602 5600 5594 5592 5588 5585 5580 5578 5575 5574 5574 5574 5575 5577 5580 5583 5587 5592 5595 5600 5601 5607 5610 5609 5612 5613 5611 5610 5608
5611 5613 5616 5617 5618 5620 5620 5620 5620 5620 5617 5614 5611 5608 5605 5603 5600 5597 5593 5590 5587 5585 5583 5581 5580 5580 5580 5580 5582 5586 5589 5593 5596 5597 5601 5603 5606 5607 5607 5606 5604 5604 5601 5597
5610 5612 5614 5615 5617 5617 5618 5617 5617 5616 5615 5613 5610 5608 5606 5603 5601 5598 5595 5593 5590 5588 5587 5586 5585 5583 5584 5584 5587 5589 5590 5594 5596 5598 5599 5601 5602 5601 5601 5599 5597 5594 5591 5589
5606 5608 5611 5613 5615 5615 5615 5615 5615 5615 5614 5613 5611 5607 5606 5604 5603 5600 5597 5595 5593 5591 5589 5588 5588 5588 5588 5588 5590 5591 5592 5594 5595 5597 5598 5597 5597 5597 5595 5593 5590 5588 5585 5581
5603 5606 5608 5610 5612 5613 5614 5613 5612 5612 5611 5611 5610 5607 5606 5604 5603 5601 5599 5597 5596 5594 5593 5591 5590 5590 5590 5590 5590 5591 5592 5593 5594 5593 5593 5593 5592 5591 5589 5587 5584 5580 5577 5573
5599 5601 5605 5608 5610 5610 5610 5610 5610 5609 5609 5609 5607 5606 5605 5603 5603 5602 5599 5598 5597 5596 5595 5593 5593 5592 5592 5592 5592 5593 5593 5593 5592 5591 5591 5589 5587 5585 5582 5579 5576 5573 5570 5566
Wind_Speed
37 36 34 29 33 37 41 43 42 42 43 44 42 41 39 40 42 39 39 38 38 37 36 35 33 34 34 35 36 34 35 35 34 38 38 43 41 40 39 35 31 31 30 39
35 33 27 30 34 36 39 38 37 38 42 44 41 40 40 41 41 42 41 41 39 40 40 40 40 40 39 38 39 38 37 36 36 36 40 45 46 44 43 38 35 34 31 38
28 26 29 31 31 26 31 34 33 34 35 36 38 38 35 38 39 41 42 42 42 43 44 44 45 44 43 43 43 43 43 43 41 40 41 43 46 47 46 41 37 38 37 36
27 26 27 26 25 25 27 27 26 25 26 29 33 38 30 34 37 39 39 41 40 41 42 44 45 47 48 48 49 50 49 49 49 47 44 46 47 50 49 45 43 40 38 37
22 22 23 22 24 24 23 21 19 23 24 25 25 33 29 30 31 34 37 39 43 47 49 52 54 55 56 57 57 55 55 55 54 53 49 47 49 51 52 47 45 40 40 41
23 19 20 20 20 19 17 17 19 21 22 24 24 29 32 30 34 38 43 47 50 54 56 57 58 60 62 63 63 65 65 61 59 57 55 51 49 46 51 51 47 44 43 43
20 21 21 19 18 17 16 17 19 22 23 24 27 29 29 35 37 41 46 50 52 54 55 56 57 59 58 59 62 64 64 61 61 61 60 56 50 45 47 54 50 47 45 44
21 22 20 18 17 17 16 17 20 23 24 26 30 31 31 37 41 41 43 45 47 47 48 49 50 50 51 47 44 41 41 47 58 59 58 54 50 48 48 55 52 48 47 44
22 21 19 18 18 17 15 19 22 24 27 29 30 31 34 36 35 38 41 46 47 49 49 51 51 52 54 55 53 50 46 44 42 51 58 55 46 52 51 51 49 51 48 44
20 19 19 18 17 18 20 20 22 23 27 29 31 32 32 28 29 34 38 39 40 42 48 51 47 46 48 44 52 53 51 49 44 40 50 54 48 52 52 49 48 48 48 44
20 19 17 18 20 20 19 18 21 23 26 31 33 27 31 29 32 36 36 40 39 45 55 57 51 46 45 45 46 46 52 51 49 41 41 52 49 49 48 46 46 47 45 42
20 19 18 19 17 17 16 18 21 25 27 21 29 26 26 30 34 37 39 44 44 49 49 52 51 45 41 44 46 44 49 53 49 44 41 47 43 45 45 46 47 45 42 40
18 18 18 16 15 15 16 19 22 22 24 18 29 29 29 32 34 37 45 50 52 51 51 47 43 38 36 39 43 43 41 50 47 49 43 45 43 43 44 46 45 41 39 38
18 16 14 14 14 15 16 19 20 21 21 23 19 23 22 31 35 40 47 43 42 43 30 33 32 32 32 33 38 38 31 33 40 36 38 40 39 41 41 41 39 36 35 35
15 13 13 16 17 14 15 15 17 18 19 20 16 24 31 34 32 41 44 42 37 25 26 20 17 18 19 21 23 23 21 28 26 32 33 35 37 37 35 33 32 32 32 34
14 14 16 17 16 13 13 12 15 13 14 18 20 21 26 26 32 27 34 38 35 26 12 9 4 2 4 6 6 9 14 23 26 28 32 34 32 28 28 29 30 27 32 33
14 15 14 15 11 11 10 9 8 11 15 16 18 21 20 23 24 19 21 24 15 12 7 4 4 6 9 11 11 15 20 22 25 29 29 27 24 24 23 19 29 28 24 33
14 14 12 11 9 9 7 6 7 10 10 14 19 17 19 19 16 13 13 15 15 12 9 7 7 7 7 12 16 18 21 22 23 23 23 23 22 20 25 22 21 23 36 37
13 12 10 10 10 6 5 7 9 10 12 13 15 13 18 12 17 15 14 14 13 12 12 11 10 11 15 18 22 17 15 17 19 18 16 18 18 16 18 25 22 32 33 35
13 10 8 9 9 6 7 6 8 8 10 12 10 12 15 20 13 13 15 13 13 12 14 16 17 20 21 16 14 13 13 13 13 15 15 12 12 20 23 29 31 29 38 37
13 10 7 9 7 7 6 6 5 5 6 9 11 9 14 17 17 14 17 15 8 7 8 13 14 14 13 14 14 16 15 15 13 20 20 19 18 20 25 27 32 30 31 34
14 11 9 8 8 8 4 5 6 5 5 6 10 12 10 11 11 14 16 9 13 9 3 8 9 7 10 9 9 11 7 15 16 12 13 14 18 17 18 22 26 27 27 30
14 12 12 8 6 4 2 4 5 4 7 8 8 9 7 10 8 11 12 14 6 5 6 8 11 13 10 12 14 8 6 3 10 9 6 10 12 15 20 23 25 27 30 34
16 15 13 8 5 2 4 5 4 2 5 7 9 8 8 8 14 8 6 5 7 8 9 6 2 1 2 3 4 5 2 3 4 6 9 11 14 18 21 25 29 31 33 34
18 17 15 12 8 8 6 8 7 5 6 7 8 8 8 9 9 7 5 3 2 3 2 3 3 4 3 3 2 3 3 4 7 9 13 16 20 23 25 27 28 29 32 34
19 21 17 14 12 11 12 11 10 7 7 10 10 11 9 8 8 6 3 3 1 1 2 1 1 4 4 3 1 3 6 9 12 15 17 19 20 21 24 26 28 30 30 32
Wind_Direction
226 225 228 232 231 231 234 238 241 244 243 242 244 244 246 246 240 241 244 244 244 246 247 246 246 245 244 245 249 248 250 257 259 251 252 264 268 268 270 271 268 271 269 271
223 222 223 226 230 233 237 239 242 243 245 241 242 241 245 246 244 244 246 246 245 245 246 247 249 247 246 245 246 249 252 253 258 260 252 254 260 263 266 268 269 269 267 267
217 214 218 224 227 230 238 239 241 242 247 250 246 241 246 246 247 246 249 250 249 247 248 250 251 252 251 250 250 251 252 253 254 256 259 261 261 261 263 265 267 268 265 270
212 212 215 218 223 226 233 238 242 247 246 251 253 246 245 247 248 248 249 250 251 251 251 252 253 255 256 256 257 259 259 261 262 261 259 259 264 262 260 261 263 265 268 268
208 208 212 211 215 219 224 228 228 234 242 246 254 257 239 241 249 254 254 253 254 256 258 260 260 258 257 259 260 260 261 262 264 266 265 257 257 262 261 259 260 261 264 265
196 193 202 202 207 209 212 218 232 237 243 247 248 258 258 260 259 260 259 260 261 263 262 263 263 263 262 262 261 261 261 259 258 260 261 261 254 256 257 257 258 259 260 264
179 185 191 198 204 207 216 229 242 249 253 260 261 261 263 276 277 273 271 273 274 276 274 270 266 263 261 260 260 259 257 256 253 253 255 256 253 252 250 250 253 257 260 263
181 191 196 204 212 221 227 242 253 262 265 264 267 270 272 275 278 282 282 281 281 278 275 272 267 268 266 261 258 253 256 258 251 252 252 249 249 250 246 246 247 253 257 261
192 194 207 215 221 230 240 251 259 266 273 274 280 283 285 287 288 289 288 286 285 283 279 277 276 271 265 260 256 251 252 253 256 252 244 246 244 245 244 245 244 250 253 257
201 204 212 223 232 240 249 260 268 276 286 288 287 292 289 304 295 287 283 286 292 295 292 287 278 271 266 265 257 251 247 245 249 252 247 240 235 239 242 243 243 247 251 254
206 213 216 229 240 252 263 273 282 287 288 288 299 295 324 308 297 292 299 297 298 302 300 293 283 274 265 260 258 253 243 236 239 244 250 235 233 235 240 241 242 246 248 253
209 219 229 240 252 263 277 283 285 283 288 301 299 298 311 296 293 305 306 306 300 297 290 281 279 269 266 254 247 246 242 236 232 238 246 233 230 234 236 237 239 243 247 252
218 229 242 250 259 276 279 281 285 287 298 317 302 311 309 303 313 317 312 309 302 300 293 280 271 267 262 261 244 238 232 236 233 234 236 225 225 226 231 234 237 242 248 255
227 235 246 258 268 269 276 280 282 300 307 296 299 315 314 315 311 317 315 315 307 301 291 284 281 273 253 261 246 235 226 225 224 227 222 219 220 223 228 234 237 242 247 255
232 235 254 264 265 266 269 276 285 302 302 311 326 328 321 321 319 317 316 321 327 315 312 296 276 266 257 247 227 231 244 227 216 214 211 212 216 220 227 232 236 239 249 258
231 244 251 260 268 271 282 288 309 309 315 329 329 335 327 328 326 332 332 325 325 321 316 336 316 349 200 209 211 224 214 201 204 204 202 205 213 216 223 228 235 248 256 261
233 236 247 259 262 274 287 293 298 299 328 349 344 336 344 335 322 346 345 347 344 8 355 15 112 150 165 172 186 190 192 204 193 190 197 203 209 215 224 237 236 253 260 262
229 233 242 247 260 279 267 275 281 311 324 334 344 346 359 348 357 18 14 8 20 30 54 78 99 113 125 145 157 170 171 172 176 183 192 200 211 217 226 240 251 255 256 260
225 232 223 235 261 244 248 277 306 308 320 336 344 345 12 357 10 14 9 9 22 36 55 71 91 120 138 144 133 134 154 166 173 178 182 204 211 218 228 239 234 258 268 265
227 219 218 232 243 246 262 294 308 339 334 333 358 10 20 17 15 20 11 21 29 58 52 55 76 99 91 95 118 140 150 152 154 161 201 226 211 250 238 243 255 260 259 260
219 212 224 220 230 250 267 299 299 340 354 342 354 21 6 10 20 24 34 32 44 61 81 93 95 95 100 114 129 133 132 144 139 187 205 210 212 233 237 252 258 281 284 269
208 208 218 206 234 254 271 306 317 359 37 16 4 7 5 21 14 23 18 13 31 47 125 90 107 140 135 144 125 130 140 174 168 199 225 212 247 250 249 267 284 284 290 294
210 201 205 223 232 225 285 338 345 355 27 24 21 15 356 4 16 14 31 34 19 356 359 58 42 51 84 111 142 88 99 117 176 214 282 288 281 285 285 284 287 292 295 296
204 202 206 221 210 235 336 325 324 333 5 4 11 22 0 11 16 15 11 21 17 43 65 69 53 354 309 284 288 295 1 1 320 284 279 286 284 282 288 292 293 293 296 298
207 207 213 215 238 287 296 303 302 313 332 342 351 349 349 348 344 354 16 30 7 10 69 71 75 92 83 66 42 10 341 309 302 298 293 292 292 291 292 294 297 300 301 300
208 214 215 227 244 278 297 290 281 280 303 311 320 321 314 319 324 338 5 1 312 176 185 194 122 79 73 73 20 299 287 289 292 292 291 292 297 303 307 307 306 304 303 303